Hourly Data Report for May 21, 2012

All times are specified in Local Standard Time (LST). Add 1 hour to adjust for Daylight Saving Time where and when it is observed.

PENTICTON A
BRITISH COLUMBIA

49°27'45.000" N
119°36'08.000" W
344.40 m
1126146
71889
YYF

Related Data

No related data is available for this station

Download Data

Hourly Data (May 2012)
Hourly Data Report for May 21, 2012
Temp Definition
°C
Dew Point Temp Definition
°C
Rel Hum Definition
%
Wind Dir Definition
10's deg

Wind Spd Definition
km/h
Visibility Definition
km
Stn Press Definition
kPa
Hmdx Definition


Wind Chill Definition


Weather Definition


TIME
00:00 Legend Double Dagger 12.4 10.2 86 0 18 10.0 97.31     Rain Showers
01:00 Legend Double Dagger 12.3 9.9 85 35 14 10.0 97.29     Cloudy
02:00 Legend Double Dagger 11.9 9.8 87 1 9 10.0 97.24     LegendNANA
03:00 Legend Double Dagger 11.6 9.9 89 34 10 10.0 97.21     LegendNANA
04:00 Legend Double Dagger 11.3 9.6 89 0 11 10.0 97.18     Cloudy
05:00 Legend Double Dagger 11.4 9.7 89 33 6 10.0 97.18     LegendNANA
06:00 Legend Double Dagger 12.0 9.8 86 1 8 10.0 97.16     LegendNANA
07:00 Legend Double Dagger 12.6 9.8 83 36 8 10.0 97.11     Cloudy
08:00 Legend Double Dagger 12.4 9.4 82 2 9 10.0 97.06     LegendNANA
09:00 Legend Double Dagger 13.8 10.1 78 2 19 10.0 96.99     LegendNANA
10:00 Legend Double Dagger 13.1 10.7 85 1 14 10.0 96.96     Rain
11:00 Legend Double Dagger 13.2 10.4 83 2 14 10.0 96.88     Rain
12:00 Legend Double Dagger 14.5 10.6 77 2 8 10.0 96.82     LegendNANA
13:00 Legend Double Dagger 15.1 11.0 76 1 10 10.0 96.79     Cloudy
14:00 Legend Double Dagger 14.4 11.2 81 1 12 10.0 96.74     Rain
15:00 Legend Double Dagger 13.4 11.1 86 0 12 10.0 96.69     Rain
16:00 Legend Double Dagger 13.4 12.3 93 1 10 10.0 96.66     Rain
17:00 Legend Double Dagger 13.9 12.5 91 36 10 10.0 96.61     LegendNANA
18:00 Legend Double Dagger 13.8 12.5 92 1 8 10.0 96.51     LegendNANA
19:00 Legend Double Dagger 12.9 11.8 93 35 13 10.0 96.50     Cloudy
20:00 Legend Double Dagger 13.9 12.1 89 36 4 10.0 96.45     LegendNANA
21:00 Legend Double Dagger 12.5 11.6 94 36 8 10.0 96.50     LegendNANA
22:00 Legend Double Dagger 12.2 11.4 95 35 7 10.0 96.50     Rain Showers
23:00 Legend Double Dagger 12.7 11.5 92 32 4 10.0 96.55     LegendNANA

Notes on Data Quality.

Legend

  • E = Estimated
  • M = Missing
  • NA = Not Available
  • ‡ = Partner data that is not subject to review by the National Climate Archives
Date modified: